TimeMST,TemperatureF,Dew PointF,Humidity,Sea Level PressureIn,VisibilityMPH,Wind Direction,Wind SpeedMPH,Gust SpeedMPH,PrecipitationIn,Events,Conditions,WindDirDegrees,DateUTC
12:53 AM,28.0,25.0,88,30.14,5.0,Calm,Calm,-,0.00,Snow,Light Snow,0,2012-12-28 07:53:00
1:53 AM,28.9,25.0,85,30.14,5.0,Calm,Calm,-,0.01,Snow,Light Snow,0,2012-12-28 08:53:00
2:53 AM,28.0,24.1,85,30.17,6.0,NNE,3.5,-,0.00,Snow,Light Snow,20,2012-12-28 09:53:00
3:53 AM,26.6,24.8,93,30.12,5.0,NW,4.6,-,N/A,Snow,Light Snow,310,2012-12-28 10:53:00
4:53 AM,28.0,26.1,92,30.18,5.0,Calm,Calm,-,0.00,Snow,Light Snow,0,2012-12-28 11:53:00
5:53 AM,27.0,25.0,92,30.18,3.0,Calm,Calm,-,0.01,Snow,Light Snow,0,2012-12-28 12:53:00
6:53 AM,28.0,26.1,92,30.20,3.0,North,3.5,-,0.00,Snow,Light Snow,10,2012-12-28 13:53:00
7:00 AM,28.0,25.0,88,30.14,3.0,Calm,Calm,-,0.01,Snow,Light Snow,0,2012-12-28 14:00:00
7:24 AM,27.0,24.1,89,30.14,3.0,North,3.5,-,0.01,Snow,Light Snow,360,2012-12-28 14:24:00
7:49 AM,28.4,24.8,86,30.14,2.5,Calm,Calm,-,0.01,Snow,Light Snow,0,2012-12-28 14:49:00
7:53 AM,27.0,25.0,92,30.21,2.0,Calm,Calm,-,0.01,Snow,Light Snow,0,2012-12-28 14:53:00
7:56 AM,27.0,25.0,92,30.15,1.5,Calm,Calm,-,0.00,Snow,Light Snow,0,2012-12-28 14:56:00
8:32 AM,27.0,25.0,92,30.16,2.0,Calm,Calm,-,0.01,Snow,Light Snow,0,2012-12-28 15:32:00
8:53 AM,26.6,24.8,93,30.17,2.0,Calm,Calm,-,N/A,Snow,Light Snow,0,2012-12-28 15:53:00
9:13 AM,26.6,24.8,93,30.17,3.0,Calm,Calm,-,N/A,Snow,Light Snow,0,2012-12-28 16:13:00
9:53 AM,28.9,24.1,82,30.25,10.0,North,3.5,-,0.00,,Mostly Cloudy,10,2012-12-28 16:53:00
10:53 AM,30.0,23.0,75,30.27,10.0,North,3.5,-,N/A,,Mostly Cloudy,360,2012-12-28 17:53:00
11:53 AM,30.0,21.0,69,30.26,10.0,North,4.6,-,N/A,,Scattered Clouds,10,2012-12-28 18:53:00
12:53 PM,32.0,19.0,59,30.24,10.0,NNW,4.6,-,N/A,,Scattered Clouds,340,2012-12-28 19:53:00
1:53 PM,32.0,19.9,61,30.22,10.0,North,3.5,-,N/A,,Scattered Clouds,360,2012-12-28 20:53:00
2:53 PM,32.0,19.9,61,30.22,10.0,Calm,Calm,-,N/A,,Scattered Clouds,0,2012-12-28 21:53:00
3:53 PM,26.1,17.1,69,30.25,10.0,North,6.9,-,N/A,,Scattered Clouds,350,2012-12-28 22:53:00
4:53 PM,26.6,19.4,74,30.19,10.0,North,6.9,-,N/A,,Mostly Cloudy,360,2012-12-28 23:53:00
5:53 PM,23.0,16.0,74,30.28,10.0,NNW,6.9,-,N/A,,Mostly Cloudy,340,2012-12-29 00:53:00
6:53 PM,23.0,18.0,81,30.28,10.0,West,3.5,-,N/A,,Mostly Cloudy,270,2012-12-29 01:53:00
7:53 PM,19.9,17.1,89,30.30,10.0,WSW,3.5,-,N/A,,Mostly Cloudy,240,2012-12-29 02:53:00
8:53 PM,19.0,14.0,81,30.31,10.0,SW,3.5,-,N/A,,Mostly Cloudy,230,2012-12-29 03:53:00
9:53 PM,19.0,15.1,85,30.31,9.0,Calm,Calm,-,N/A,,Scattered Clouds,0,2012-12-29 04:53:00
10:53 PM,19.9,16.0,85,30.31,9.0,SE,8.1,-,N/A,,Mostly Cloudy,140,2012-12-29 05:53:00
11:53 PM,19.9,15.1,81,30.31,8.0,SSE,6.9,-,N/A,,Mostly Cloudy,150,2012-12-29 06:53:00